Skip Page Navigation
NASA JPL Caltech
NASA Logo - Jet Propulsion Laboratory + View the NASA Portal
+ Center for Near-Earth Object Studies
JPL Home Earth Solar System Stars & Galaxies Technology
JPL Solar System Dynamics
BODIES ORBITS EPHEMERIDES TOOLS PHYSICAL DATA DISCOVERY FAQ SITE MAP
IMPORTANT: The SSD Announcement email list is now available. Major changes are coming in the near future, including possible hostname and/or URL changes. To be notified of such changes, subscribe to this email list.

Please visit this page for more details.


JPL Small-Body Database Browser
Search: [ help ]  
324003 (2005 UV288)
Classification: Main-belt Asteroid          SPK-ID: 2324003
Ephemeris | Orbit Diagram | Orbital Elements | Mission Design | Physical Parameters | Discovery Circumstances | Close-Approach Data ]

[ hide orbit diagram ]

For accurate long-term ephemerides, please instead use our Horizons system.This orbit viewer was implemented using two-body methods, and hence should not be used for determining accurate long-term trajectories (over several years or decades) or planetary encounter circumstances.


[ revert to old Java-based viewer ]

Orbital Elements at Epoch 2459000.5 (2020-May-31.0) TDB
Reference: JPL 11 (heliocentric ecliptic J2000)
 Element Value Uncertainty (1-sigma)   Units 
e .02223812571014441 5.668e-08  
a 2.756340779513161 3.8844e-08 au
q 2.69504492675835 1.6123e-07 au
i 4.588149399979716 6.0733e-06 deg
node 274.9626150797784 8.91e-05 deg
peri 18.55420035780524 0.000185 deg
M 178.5614372472787 0.00016221 deg
tp 2458171.445721903432
(2018-Feb-21.94572190)
0.00075517 TDB
period 1671.466945583813
4.58
3.5333e-05
9.674e-08
d
yr
n .2153796705050955 4.5529e-09 deg/d
Q 2.817636632267973 3.9708e-08 au
  Orbit Determination Parameters
   # obs. used (total)      143  
   data-arc span      6529 days (17.88 yr)  
   first obs. used      2001-12-20  
   last obs. used      2019-11-05  
   planetary ephem.      DE431  
   SB-pert. ephem.      SB431-N16  
   condition code      0  
   norm. resid. RMS      .52334  
   source      ORB  
   producer      Otto Matic  
   solution date      2019-Dec-04 22:06:15  

Additional Information
 Earth MOID = 1.67921 au 
 Jupiter MOID = 2.22932 au 
 T_jup = 3.338 
[ show covariance matrix ]

Ephemeris | Orbit Diagram | Orbital Elements | Mission Design | Physical Parameters | Discovery Circumstances | Close-Approach Data ]

Physical Parameter Table
Parameter Symbol Value Units Sigma Reference Notes
absolute magnitude H 16.6   n/a MPO455388  

324003 (2005 UV288)          Discovered 2005-Oct-26 by Spacewatch at Kitt Peak
Reference: 20120406/Numbers.arcLast Updated: 2012-04-09

[ show close-approach data ]
Ephemeris | Orbit Diagram | Orbital Elements | Mission Design | Physical Parameters | Discovery Circumstances | Close-Approach Data ]
ABOUT SSD CREDITS/AWARDS PRIVACY/COPYRIGHT GLOSSARY LINKS
FirstGov 2020-May-29 09:15 UT
(server date/time)  
NASA Home Page
Site Manager:   Ryan S. Park
Webmaster  Alan B. Chamberlin